Nome, AK (99762)

5:12 AM AKST on March 06, 2015 (GMT -0900)
Nome | Change Station
CLOSE
Current Station
Airport
Location: Nome,
Elevation: 36 ft
Nearby Weather Stations
Active Advisory: Winter Storm Warning

Elev 36 ft 64.51 °N, 165.45 °W | Updated 6 minutes ago

Light Snow
Light Snow Mist
13 °F
Feels Like -2 °F
N
13
Wind Variable Wind from East

Today
High -- | Low -- °F
--% Chance of Precip.
Yesterday
High -- | Low -- °F
Precip. -- in
8:52 AM 7:34 PM
Full, 99% visible
Pressure 29.87 in
Visibility 2.0 miles
Clouds Overcast 2300 ft
Windchill -2 °F
Dew Point 12 °F
Humidity 96%
Rainfall 0.00 in
Snow Depth Not available.
UV 0 out of 12
Pollen Not available.
Air Quality Not available.
Flu Activity Not available.
SPECI PAOM 061406Z 08011KT 2SM -SN BR OVC023 M11/M11 A2987 RMK AO2 P0000 T11061111

More Conditions Fewer Conditions

Pressure 29.87 in
Visibility 2.0 miles
Clouds Overcast 2300 ft
Windchill -2 °F
Dew Point 12 °F
Humidity 96%
Rainfall 0.00 in
Snow Depth Not available.
UV 0 out of 12
Pollen Not available.
Air Quality Not available.
Flu Activity Not available.
SPECI PAOM 061406Z 08011KT 2SM -SN BR OVC023 M11/M11 A2987 RMK AO2 P0000 T11061111

More Conditions Fewer Conditions

10-Day Weather Forecast

Almanac

Astronomy

Mar. 06, 2015 Rise Set
Actual Time
Civil Twilight
Nautical Twilight
Astronomical Twilight
Moon
Length of Visible Light
Length of Day
Tomorrow will be .
, % of the Moon is Illuminated

Today's Extremes

State Highs State Lows

Community

WunderPhotos

Upload Photos

1,803,275 photos uploaded!

WunderBlogs® & News

Nearby

Air Quality

  Air Quality AQ Index Pollutant
Not available.

Snow Depth

Station Depth Elevation

Earthquake Activity

City Distance Mag. Time & Date
Minimum magnitude displayed is 2.5.

Coastal Water Temperatures

Place Temperature

Nearby Weather Stations

Winter Storm Warning
Statement as of 4:19 AM AKST on March 06, 2015

... Winter Storm Warning remains in effect until 6 am akst
Saturday...

A Winter Storm Warning for heavy snow remains in effect until
6 am akst Saturday.

* Snow... 6 to 8 inches.

* Blowing snow... reducing visibility to one half mile or less at
times

* timing... snow heavy at times will develop this morning and
continue through Saturday morning. Winds will increase this
morning and continue through Saturday morning.

* Impacts... travel and outdoor activities will be difficult.

Precautionary/preparedness actions...

A Winter Storm Warning means one or more significant winter
weather hazards are occurring or expected.